Weather History for KHSI - February, 2012

Change the Weather History Date:

Sunday, February 12, 2012

  Actual Average Record
Temperature  
Mean Temperature 11 °F 29 °F  
Max Temperature 26 °F 39 °F 68 °F (1911)
Min Temperature -5 °F 19 °F -11 °F (1955)
Degree Days  
Heating Degree Days 54 36  
Month to date heating degree days 483 444  
Since 1 July heating degree days 3845 4093  
Cooling Degree Days 0 0  
Month to date cooling degree days 0 0  
Year to date cooling degree days 0 0  
Moisture  
Dew Point 8 °F    
Average Humidity 67    
Maximum Humidity 84    
Minimum Humidity 50    
Precipitation  
Precipitation 0.01 in 0.01 in 0.52 in (1978)
Month to date precipitation 1.60 0.20  
Year to date precipitation 1.74 0.61  
Snow  
Snow 0.30 in 0.30 in 6.00 in (1978)
Month to date snowfall 11.4 3.1  
Since 1 July snowfall 22.5 19.0  
Snow Depth 6.00 in    
Sea Level Pressure  
Sea Level Pressure 30.22 in    
Wind  
Wind Speed 10 mph (South)    
Max Wind Speed 18 mph    
Max Gust Speed 26 mph    
Visibility 7 miles    
Events Snow    
T = Trace of Precipitation, MM = Missing Value Source: NWS Daily Summary

Daily Weather History Graph

Daily Weather History Graph

Search for Another Location

Airport or City:

Trip Planner

Search our weather history database for the weather conditions in past years. The results will help you decide how hot, cold, wet, or windy it might be!

Date:

Astronomy

Feb. 12, 2012 Rise Set
Actual Time 7:31 AM CST 6:04 PM CST
Civil Twilight 7:03 AM CST 6:32 PM CST
Nautical Twilight 6:31 AM CST 7:04 PM CST
Astronomical Twilight 5:59 AM CST 7:36 PM CST
Moon No Moon Rise 9:49 AM CST (2/12)
Length of Visible Light 11h 29m
Length of Day
10h 32m
Waning Gibbous, 72% of the Moon is Illuminated
Feb 12
Waning Gibbous
Feb 14
Last Quarter
Feb 21
New
Feb 29
First Quarter
Mar 8
Full

Hourly Weather History & Observations

Time (CST) Temp. Windchill Dew Point Humidity Pressure Visibility Wind Dir Wind Speed Gust Speed Precip Events Conditions
12:53 AM -2.9 °F -11.2 °F -8.0 °F 79% 30.68 in 10.0 mi SW 3.5 mph - N/A   Clear
1:53 AM -2.9 °F - -9.0 °F 75% 30.67 in 10.0 mi Calm Calm - N/A   Clear
2:53 AM -0.9 °F -8.9 °F -7.1 °F 75% 30.64 in 10.0 mi SSW 3.5 mph - N/A   Clear
3:53 AM -0.9 °F -11.0 °F -6.0 °F 79% 30.60 in 10.0 mi South 4.6 mph - N/A   Clear
4:53 AM -0.0 °F -11.6 °F -6.0 °F 76% 30.57 in 10.0 mi South 5.8 mph - N/A   Clear
5:53 AM 3.0 °F -9.3 °F -4.0 °F 73% 30.55 in 10.0 mi South 6.9 mph - N/A   Clear
6:53 AM 1.9 °F -7.6 °F -4.0 °F 76% 30.53 in 10.0 mi South 4.6 mph - N/A   Clear
7:53 AM 3.9 °F -8.2 °F -2.0 °F 76% 30.52 in 10.0 mi South 6.9 mph - N/A   Overcast
8:53 AM 10.0 °F -1.9 °F 1.0 °F 67% 30.50 in 10.0 mi South 8.1 mph - N/A   Mostly Cloudy
9:53 AM 15.1 °F 2.5 °F 3.9 °F 61% 30.48 in 10.0 mi South 10.4 mph - N/A   Mostly Cloudy
10:53 AM 18.0 °F 5.4 °F 7.0 °F 62% 30.43 in 10.0 mi South 11.5 mph 17.3 mph N/A   Overcast
11:53 AM 21.0 °F 8.1 °F 9.0 °F 60% 30.40 in 10.0 mi South 13.8 mph 25.3 mph N/A   Overcast
12:53 PM 23.0 °F 11.1 °F 12.0 °F 63% 30.35 in 10.0 mi South 12.7 mph 20.7 mph N/A   Scattered Clouds
1:53 PM 25.0 °F 12.6 °F 12.0 °F 58% 30.29 in 10.0 mi South 15.0 mph 19.6 mph N/A   Mostly Cloudy
2:53 PM 26.1 °F 12.3 °F 10.9 °F 53% 30.23 in 10.0 mi South 19.6 mph 26.5 mph N/A   Overcast
3:53 PM 26.1 °F 13.6 °F 10.9 °F 53% 30.20 in 10.0 mi SSE 16.1 mph - N/A   Clear
4:53 PM 25.0 °F 13.1 °F 10.0 °F 53% 30.16 in 10.0 mi South 13.8 mph - N/A   Mostly Cloudy
5:53 PM 24.1 °F 10.6 °F 9.0 °F 53% 30.14 in 10.0 mi South 17.3 mph 23.0 mph N/A   Overcast
6:53 PM 23.0 °F 11.1 °F 10.0 °F 58% 30.13 in 10.0 mi South 12.7 mph - N/A   Overcast
7:53 PM 21.9 °F 11.0 °F 10.9 °F 63% 30.10 in 10.0 mi South 10.4 mph - N/A   Scattered Clouds
8:53 PM 23.0 °F 12.4 °F 10.9 °F 60% 30.06 in 10.0 mi South 10.4 mph - N/A   Overcast
9:40 PM 21.2 °F 9.5 °F 14.0 °F 74% 29.96 in 2.5 mi South 11.5 mph 17.3 mph 0.00 in Snow Light Snow
9:48 PM 21.2 °F 10.9 °F 15.8 °F 80% 29.96 in 1.2 mi South 9.2 mph 17.3 mph 0.00 in Snow Light Snow
9:53 PM 21.0 °F 10.6 °F 16.0 °F 81% 30.06 in 1.5 mi South 9.2 mph 16.1 mph 0.00 in Snow Light Snow
10:02 PM 21.2 °F 10.1 °F 15.8 °F 80% 29.96 in 2.0 mi South 10.4 mph - 0.01 in Snow Light Snow
10:17 PM 21.2 °F 9.5 °F 14.0 °F 74% 29.95 in 7.0 mi South 11.5 mph 20.7 mph 0.01 in Snow Light Snow
10:33 PM 21.2 °F 10.1 °F 15.8 °F 80% 29.94 in 3.0 mi South 10.4 mph 19.6 mph 0.01 in Snow Light Snow
10:42 PM 21.2 °F 8.9 °F 15.8 °F 80% 29.93 in 2.0 mi South 12.7 mph - 0.01 in Snow Light Snow
10:50 PM 21.2 °F 10.9 °F 17.6 °F 86% 29.93 in 2.0 mi South 9.2 mph - 0.01 in Snow Light Snow
10:53 PM 21.0 °F 10.6 °F 17.1 °F 85% 30.01 in 2.0 mi South 9.2 mph - 0.01 in Snow Light Snow
10:56 PM 21.2 °F 10.1 °F 17.6 °F 86% 29.92 in 3.0 mi South 10.4 mph - 0.00 in Snow Light Snow
11:08 PM 21.2 °F 10.1 °F 15.8 °F 80% 29.92 in 2.5 mi South 10.4 mph 18.4 mph 0.00 in Snow Light Snow
11:38 PM 21.2 °F 9.5 °F 15.8 °F 80% 29.90 in 7.0 mi South 11.5 mph 20.7 mph 0.00 in Snow Light Snow
11:53 PM 21.9 °F 11.0 °F 15.1 °F 75% 29.98 in 7.0 mi South 10.4 mph - 0.00 in Snow Light Snow